Location: Cheyres
(46.8153°N, 6.7877°E)
Time: 13:55:10
(UTC+00:00)

Cosmos 1271 Rocket - Pass Details

Date: 11 May 2021
Orbit: 497 x 545 km, 81.2° (Epoch: 19 June)

Event Time Altitude Azimuth Distance (km) Brightness Sun altitude
Exits shadow 20:18:47 18° 118° (ESE) 1,380 4.3 -12.2°
Maximum altitude 20:20:09 21° 90° (E) 1,250 4.2 -12.4°
Drops below altitude 10° 20:23:13 10° 40° (NE) 1,825 5.5 -12.8°
Sets 20:25:45 0° 25° (NNE) 2,723 6.7 -13.1°
